This is the latest recevied weather packets stored in our database for station/object 4S6DRJ-13. If no packets are shown the sender has not sent any weather packets the latest 1 day(s).
| Time | Temp. | Humidity | Pressure | Rain* | Wind** | Luminosity | Snow |
|---|---|---|---|---|---|---|---|
| 1778122602 | 28.33° C | 83% | 1005.4 hPa | 0 mm | 0.89 m/s, 116° | 400 W/m² | - |
| 1778122480 | 28.89° C | 82% | 1005.4 hPa | 0 mm | 1.79 m/s, 109° | 381 W/m² | - |
| 1778122419 | 28.89° C | 82% | 1005.4 hPa | 0 mm | 0.89 m/s, 108° | 382 W/m² | - |
| 1778122358 | 28.89° C | 82% | 1005.5 hPa | 0 mm | 0.89 m/s, 145° | 386 W/m² | - |
| 1778122297 | 28.89° C | 83% | 1005.5 hPa | 0 mm | 0.45 m/s, 107° | 385 W/m² | - |
| 1778122236 | 28.33° C | 84% | 1005.4 hPa | 0 mm | 0.45 m/s, 128° | 403 W/m² | - |
| 1778122175 | 28.33° C | 84% | 1005.5 hPa | 0 mm | 0 m/s | 420 W/m² | - |
| 1778122114 | 28.33° C | 84% | 1005.3 hPa | 0 mm | 0.45 m/s, 63° | 446 W/m² | - |
| 1778121931 | 28.33° C | 86% | 1005.4 hPa | 0 mm | 0.45 m/s, 95° | 491 W/m² | - |
| 1778121870 | 28.33° C | 85% | 1005.5 hPa | 0 mm | 0.45 m/s, 65° | 439 W/m² | - |
| 1778121810 | 28.33° C | 85% | 1005.6 hPa | 0 mm | 0 m/s | 434 W/m² | - |
| 1778121748 | 27.78° C | 86% | 1005.5 hPa | 0 mm | 0 m/s | 426 W/m² | - |
| 1778121687 | 27.78° C | 86% | 1005.5 hPa | 0 mm | 0 m/s | 400 W/m² | - |
| 1778121626 | 27.78° C | 86% | 1005.3 hPa | 0 mm | 0.89 m/s, 71° | 400 W/m² | - |
| 1778121565 | 27.78° C | 87% | 1005.4 hPa | 0 mm | 0.89 m/s, 75° | 405 W/m² | - |
| 1778121504 | 27.78° C | 87% | 1005.2 hPa | 0 mm | 0 m/s | 401 W/m² | - |
| 1778121443 | 27.78° C | 87% | 1005.3 hPa | 0 mm | 0.89 m/s, 73° | 382 W/m² | - |
| 1778121382 | 27.78° C | 88% | 1005.3 hPa | 0 mm | 0.89 m/s, 99° | 374 W/m² | - |
| 1778121321 | 27.78° C | 88% | 1005.4 hPa | 0 mm | 0 m/s | 371 W/m² | - |
| 1778121260 | 27.22° C | 89% | 1005.3 hPa | 0 mm | 0 m/s | 372 W/m² | - |
| 1778121199 | 27.22° C | 89% | 1005.3 hPa | 0 mm | 0 m/s | 357 W/m² | - |
| 1778121016 | 27.22° C | 88% | 1005.2 hPa | 0 mm | 0.45 m/s, 69° | 326 W/m² | - |
| 1778120955 | 27.22° C | 89% | 1005.3 hPa | 0 mm | 0.89 m/s, 65° | 324 W/m² | - |
| 1778120894 | 27.22° C | 89% | 1005.2 hPa | 0 mm | 0.45 m/s, 70° | 320 W/m² | - |
| 1778120834 | 27.22° C | 89% | 1005.1 hPa | 0 mm | 0.89 m/s, 80° | 319 W/m² | - |
* Rain latest hour (hover to see other rain measurements)
** Current wind speed in m/s (hover to see current wind gust speed)